Regional Weather Roundup
Issued by NWS

Home | Current Version | Previous Version | Text Only | Print | Product List | Glossary Off
Versions: 1 2 3 4 5 6 7 8 9 10 11 12 13 14 15 16 17 18 19 20 21 22 23 24 25 26 27 28 29 30 31 32 33 34 35 36 37 38 39 40 41 42 43 44 45 46 47 48 49 50

000
ASUS43 KLOT 250208
RWRIL

ILLINOIS REGIONAL WEATHER ROUNDUP
NATIONAL WEATHER SERVICE CHICAGO/ROMEOVILLE IL
800 PM CST SAT FEB 24 2018

NOTE: "FAIR" INDICATES FEW OR NO CLOUDS BELOW 12,000 FEET WITH NO
SIGNIFICANT WEATHER AND/OR OBSTRUCTIONS TO VISIBILITY.

* THESE STATIONS ARE NOT UNDER NWS QUALITY CONTROL. THEY ALSO MAY NOT
  REPORT WEATHER SUCH AS PRECIPITATION OR FOG.

ILZ001-002-007-009-015-016-024-250300-
NORTHWEST ILLINOIS

CITY           SKY/WX    TMP DP  RH WIND       PRES   REMARKS
MOLINE         LGT RAIN  43  43 100 E8        29.53F FOG
STERLING*      CLOUDY    42  42 100 MISG        N/A  FOG
SAVANNA*       RAIN      40  40  99 SE7       29.54F
$$

ILZ003-004-008-010-011-017-018-250300-
NORTH CENTRAL ILLINOIS

CITY           SKY/WX    TMP DP  RH WIND       PRES   REMARKS
ROCKFORD       LGT RAIN  41  40  96 SE13      29.58F FOG
FREEPORT*      FOG       38  38 100 E13       29.58F VSB 1   WCI  30
ROCHELLE*      LGT RAIN  42  42 100 SE16      29.56F
DE KALB*       DRIZZLE   44  44 100 SE14G22   29.59F
PERU*          DRIZZLE   47  46  93 SE17      29.55F
$$

ILZ005-006-012>014-019>023-250300-
NORTHEAST ILLINOIS

CITY           SKY/WX    TMP DP  RH WIND       PRES   REMARKS
CHICAGO-OHARE  LGT RAIN  44  41  89 SE17      29.61F
CHICAGO-MIDWAY LGT RAIN  45  44  97 SE17G25   29.63F
AURORA         LGT RAIN  46  45  96 SE18G26   29.59F FOG
LANSING*       DRIZZLE   45  45 100 SE14G24   29.66F
JOLIET*        DRIZZLE   47  47  99 SE14G23   29.60F
WAUKEGAN       CLOUDY    37  36  96 SE15G28   29.63F FOG     WCI  28
DUPAGE AIRPORT LGT RAIN  45  45 100 SE15      29.59F FOG
KANKAKEE*      CLOUDY    46  46  97 SE18G25   29.63F
WHEELING       CLOUDY    42  41  96 SE16G23   29.64F
MORRIS*        LGT RAIN  47  46  96 SE20G26   29.58F
ROMEOVILLE*    DRIZZLE   46  45  96 SE18      29.60F
NORTHERLY ISL    N/A     38  36  92 E13         N/A  WCI  30
$$

LMZ740>746-250300-
SOUTHERN LAKE MICHIGAN

STATION/POSITION SKY/WX   TEMP    WIND        PRES    VSBY  WAVE
                          AIR SEA DIR/SP/G                  HT/PER
                          (F)     (DEG/KT/KT) (MB)    (MI)  (FT/S)
HARRISON CRIB              39     130/ 22/ 24   N/A
BURNHAM HARBOR             38     120/ 10/ 16   N/A
CALUMET HARBOR             44     120/ 15/ 22 1003.9F
BURNS HARBOR               44     120/ 16/ 28 1005.8F
MICHIGAN CITY              42     100/ 16/ 20   N/A
$$

ILZ025>027-034>036-040-047-049-050-058-095>099-250300-
WEST-CENTRAL ILLINOIS

CITY           SKY/WX    TMP DP  RH WIND       PRES   REMARKS
QUINCY         LGT RAIN  45  44  97 W17G24    29.62R FOG
GALESBURG*     DRZL/FOG  46  46 100 S5        29.56F VSB 1
MACOMB*        RAIN     N/A N/A N/A W5        29.58S VSB 1/4
JACKSONVILLE*  LGT RAIN  51  50  98 S12G17    29.56F
PITTSFIELD*    LGT RAIN  50  50 100 S6        29.56F
$$

ILZ028>032-037-038-041>044-048-051>054-059>061-250300-
CENTRAL ILLINOIS

CITY           SKY/WX    TMP DP  RH WIND       PRES   REMARKS
PONTIAC        CLOUDY    48  47  97 SE21      29.58F
BLOOMINGTON    CLOUDY    49  49 100 SE22      29.56F FOG
DECATUR        CLOUDY    52  51  97 SE17      29.58F
PEORIA         CLOUDY    50  49  96 SE12      29.55F
LACON*         CLOUDY    48  48 100 SE17      29.54F
LINCOLN*       CLOUDY    51  51 100 SE13      29.56F FOG
SPRINGFIELD    LGT RAIN  53  51  93 SE10      29.57F
TAYLORVILLE    CLOUDY    52  52 100 SE14      29.57F
$$

ILZ033-039-045-046-055>057-062-063-250300-
EAST-CENTRAL ILLINOIS

CITY           SKY/WX    TMP DP  RH WIND       PRES   REMARKS
CHAMPAIGN      CLOUDY    51  51 100 SE23      29.60F
DANVILLE*      CLOUDY    50  50  99 SE14      29.61F
RANTOUL*       CLOUDY    52  51  99 SE17      29.60F
MATTOON        CLOUDY    53  52  96 SE15G22   29.61R
PARIS*         CLOUDY    51  51 100 SE18G26   29.63F
$$

ILZ079-100>102-250300-
SOUTHWEST ILLINOIS

CITY           SKY/WX    TMP DP  RH WIND       PRES   REMARKS
ALTON          CLOUDY    52  52 100 SE12      29.60S
BELLEVILLE     CLOUDY    54  53  97 SW6       29.59F
CAHOKIA*       CLOUDY    53  52  96 SW7       29.61S
SPARTA*        CLOUDY    54  54 100 S8        29.63R
$$

ILZ064>066-069>071-074>076-080>082-084>086-088>090-092>094-250300-
SOUTH-CENTRAL ILLINOIS

CITY           SKY/WX    TMP DP  RH WIND       PRES   REMARKS
CARBONDALE     PTCLDY    61  59  94 S16       29.63S
CAIRO*         FAIR      64  60  86 S14G23    29.67S
EFFINGHAM*     CLOUDY    55  55 100 E13G18    29.63F
MARION         MOCLDY    59  59  99 S13       29.65R
MT. VERNON     MOCLDY    56  55  97 S6        29.62F
CENTRALIA*     CLOUDY    56  56  99 SE10      29.60F
SALEM*         CLOUDY    56  55  94 SE8       29.60F
METROPOLIS*    CLOUDY    65  62  89 S12       29.66F
$$

ILZ067-068-072-073-078-083-087-091-250300-
SOUTHEAST ILLINOIS

CITY           SKY/WX    TMP DP  RH WIND       PRES   REMARKS
LAWRENCEVILLE  HVY RAIN  56  56 100 SE15      29.71F FOG
FLORA*         LGT RAIN  58  57  96 SW5       29.62F
FAIRFIELD*     LGT RAIN  58  58 100 MISG      29.60F
HARRISBURG*    LGT RAIN  59  59 100 S13       29.66F
ROBINSON*      LGT RAIN  53  53 100 S15G23    29.70F
CARMI*         HVY RAIN  59  58  98 S12       29.67F
$$

ABBREVIATIONS USED IN REMARKS
   TC - TEMPERATURE IN CELSIUS
  WCI - WIND CHILL INDEX
   HX - HEAT INDEX
  VSB - VISIBILITY
$$





USA.gov is the U.S. government's official web portal to all federal, state and local government web resources and services.